Flag for Germany Weather past 2 weeks in Detmold, North Rhine-Westphalia, Germany

Now
49 °F

Sunny.


Feels Like: 49 °F
Forecast: 58 / 72 °F
Wind: 1 mph from East

Location: Bad Lippspringe

Current Time: Aug 28, 2014 at 7:48:18 AM

Latest Report: Aug 28, 2014 at 7:00 AM


Visibility: 22 mi

Pressure: 30.05 "Hg

Humidity: 87%

Dew point: 45 °F

Location of DetmoldLocation

Historic Weather in Detmold — Graph

°F

Detmold temperature yesterday

Maximum temperature yesterday: 67 °F (at 7:00 PM)
Minimum temperature yesterday: 44 °F (at 7:00 AM)
Average temperature yesterday: 56 °F

Past Weeks' High & Low Weather Summary

 TemperatureHumidityPressure
High69 °F (Aug 13, 2:00 PM)99% (Aug 27, 5:00 AM)30.09 "Hg (Aug 27, 5:00 AM)
Low42 °F (Aug 25, 7:00 AM)47% (Aug 20, 4:00 PM)29.64 "Hg (Aug 13, 5:00 PM)
Average56 °F80%29.90 "Hg
* Reported Aug 13 6:00 AM — Aug 28 6:00 AM, Detmold, Weather by CustomWeather, © 2014

Note: Actual official high and low records may vary slightly from our data, if they occured in-between our weather recording intervals... More about our weather records

Advertising

Detmold weather history for previous 24 hours

 ConditionsComfort  
Time TempWeatherWind HumidityBarometerVisibility
6:00 AM
Aug 28
47 °FClear.1 mph92%30.05 "Hg19 mi
5:00 AM47 °FClear.1 mph92%30.06 "Hg17 mi
4:00 AM47 °FClear.1 mph93%30.06 "Hg11 mi
3:00 AM48 °FClear.1 mph96%30.06 "Hg7 mi
2:00 AM48 °FClear.1 mph97%30.07 "Hg5 mi
1:00 AM49 °FClear.1 mph94%30.07 "Hg10 mi
12:00 AM49 °FClear.1 mph95%30.06 "Hg12 mi
10:00 PM
Aug 27
53 °FPassing clouds.1 mph90%30.06 "Hg19 mi
9:00 PM55 °FClear.1 mph88%30.05 "Hg19 mi
8:00 PM64 °FSunny.1 mph58%30.03 "Hg25 mi
7:00 PM67 °FSunny.1 mph47%30.02 "Hg28 mi
6:00 PM66 °FSunny.2 mph50%30.02 "Hg34 mi
5:00 PM67 °FOvercast.2 mph54%30.02 "Hg37 mi
4:00 PM67 °FOvercast.2 mph53%30.02 "Hg25 mi
3:00 PM65 °FPartly sunny.2 mph54%30.03 "Hg22 mi
2:00 PM66 °FPassing clouds.2 mph52%30.03 "Hg28 mi
1:00 PM63 °FScattered clouds.1 mph60%30.03 "Hg25 mi
12:00 PM64 °FSunny.1 mph59%30.02 "Hg17 mi
11:00 AM61 °FSunny.1 mph67%30.01 "Hg9 mi
10:00 AM56 °FSunny.1 mph75%30.01 "Hg7 mi
9:00 AM53 °FFog.1 mph82%29.99 "Hg4 mi
8:00 AM47 °FFog.No wind91%29.98 "Hg2 mi
7:00 AM44 °FSunny.1 mph99%29.96 "Hg1 mi
Weather by CustomWeather, © 2014

See weather overviewHow to use our weather pages